ASTRA 1KR

Last updated on May 22, 2019, 3:12 a.m. UTC

1 29055U 06012A   19141.67781370  .00000111  00000-0  00000+0 0  9997
2 29055   0.0440 271.2596 0000758 169.7269  61.2289  1.00270229 47847
UTC
Height (km)
Latitude
Longitude
Inclination
Orbital Period
UTC large
Height (km)
Speed (km/s)
/
Latitude / Longitude
Inclination (degrees)
Orbital Period (minutes)
Azimuth
Elevation
Range (km)
Doppler Factor
iOS Compass Heading
iOS Angle

Next 30 passes for location: Hong Kong

Rise time Rise Azimuth (degrees) Set time Set Azimuth (degrees) Duration Max altitude (degrees)

No matching passes for this satellites